BWA225 TLPC-TTPP

Flight info

Callsign BWA225
Flight time 1h 1m
Altitude 16000
Route SLU DCT BNE A324 DUKLA DCT NAPKO DCT LEXOR DCT TALUS
Aircraft AT76/M-SDFGIRY/S

Departure

Time 2026-04-22 21:43
Airport George F. L. Charles Airport (TLPC)

Arrival

Time 2026-04-22 22:45
Airport Piarco International Airport (TTPP)
Time Latitude Longitude Altitude Speed Heading
2026-04-22 21:03 14.02018 -60.99560 11 ft 0 kts 144°
2026-04-22 21:38 14.02012 -60.99556 10 ft 4 kts 144°
2026-04-22 21:39 14.01993 -60.99551 8 ft 1 kts 212°
2026-04-22 21:39 14.01991 -60.99559 8 ft 4 kts 247°
2026-04-22 21:39 14.01966 -60.99604 6 ft 10 kts 220°
2026-04-22 21:39 14.01909 -60.99664 4 ft 12 kts 243°
2026-04-22 21:40 14.01881 -60.99755 5 ft 14 kts 256°
2026-04-22 21:40 14.01856 -60.99853 6 ft 15 kts 254°
2026-04-22 21:40 14.01831 -60.99947 6 ft 12 kts 255°
2026-04-22 21:40 14.01811 -61.00022 6 ft 11 kts 256°
2026-04-22 21:41 14.01804 -61.00110 7 ft 9 kts 264°
2026-04-22 21:41 14.01787 -61.00128 7 ft 0 kts 162°
2026-04-22 21:41 14.01786 -61.00125 7 ft 1 kts 130°
2026-04-22 21:41 14.01789 -61.00108 7 ft 1 kts 74°
2026-04-22 21:42 14.01789 -61.00107 7 ft 0 kts 74°
2026-04-22 21:42 14.01791 -61.00102 7 ft 11 kts 74°
2026-04-22 21:43 14.01834 -60.99936 6 ft 61 kts 76°
2026-04-22 21:43 14.02002 -60.99296 3 ft 120 kts 74°
2026-04-22 21:43 14.02444 -60.98133 587 ft 140 kts 57°
2026-04-22 21:43 14.03238 -60.97504 1126 ft 152 kts 24°
2026-04-22 21:44 14.04345 -60.97342 1560 ft 169 kts 357°
2026-04-22 21:44 14.05153 -60.97439 1834 ft 177 kts 354°
2026-04-22 21:44 14.06395 -60.97674 2367 ft 183 kts 350°
2026-04-22 21:44 14.07653 -60.97977 2804 ft 195 kts 347°
2026-04-22 21:45 14.08983 -60.98269 3359 ft 192 kts 352°
2026-04-22 21:45 14.10237 -60.98652 3998 ft 191 kts 324°
2026-04-22 21:45 14.11024 -60.99840 4134 ft 217 kts 285°
2026-04-22 21:45 14.10917 -61.01400 4169 ft 231 kts 248°
2026-04-22 21:46 14.09888 -61.02684 4185 ft 240 kts 212°
2026-04-22 21:46 14.08305 -61.03147 4310 ft 238 kts 181°
2026-04-22 21:46 14.06637 -61.03135 4370 ft 241 kts 178°
2026-04-22 21:46 14.04954 -61.03078 4491 ft 242 kts 176°
2026-04-22 21:47 14.03262 -61.03001 4638 ft 242 kts 176°
2026-04-22 21:47 14.01578 -61.02907 4796 ft 241 kts 176°
2026-04-22 21:47 13.99901 -61.02799 4929 ft 242 kts 175°
2026-04-22 21:47 13.98216 -61.02684 5091 ft 242 kts 175°
2026-04-22 21:48 13.96536 -61.02565 5219 ft 243 kts 175°
2026-04-22 21:48 13.94847 -61.02443 5361 ft 243 kts 175°
2026-04-22 21:48 13.93158 -61.02321 5502 ft 243 kts 175°
2026-04-22 21:48 13.91470 -61.02195 5629 ft 244 kts 175°
2026-04-22 21:49 13.89778 -61.02068 5755 ft 244 kts 175°
2026-04-22 21:49 13.88081 -61.01938 5894 ft 244 kts 175°
2026-04-22 21:49 13.86424 -61.02007 5924 ft 243 kts 194°
2026-04-22 21:49 13.84806 -61.02521 6012 ft 244 kts 198°
2026-04-22 21:50 13.83190 -61.03069 6126 ft 244 kts 198°
2026-04-22 21:50 13.81580 -61.03631 6236 ft 245 kts 199°
2026-04-22 21:50 13.79968 -61.04201 6339 ft 245 kts 199°
2026-04-22 21:50 13.78362 -61.04776 6446 ft 244 kts 199°
2026-04-22 21:51 13.76756 -61.05353 6546 ft 244 kts 199°
2026-04-22 21:51 13.75141 -61.05935 6637 ft 246 kts 199°
2026-04-22 21:51 13.73524 -61.06519 6734 ft 247 kts 199°
2026-04-22 21:52 13.70278 -61.07685 6922 ft 247 kts 199°
2026-04-22 21:52 13.68654 -61.08266 7022 ft 247 kts 199°
2026-04-22 21:52 13.67030 -61.08843 7110 ft 247 kts 199°
2026-04-22 21:52 13.65401 -61.09423 7192 ft 247 kts 199°
2026-04-22 21:53 13.63771 -61.09998 7275 ft 247 kts 199°
2026-04-22 21:53 13.62161 -61.10565 7359 ft 248 kts 200°
2026-04-22 21:53 13.60508 -61.11141 7432 ft 248 kts 199°
2026-04-22 21:53 13.58878 -61.11712 7509 ft 248 kts 199°
2026-04-22 21:54 13.57220 -61.12176 7541 ft 247 kts 187°
2026-04-22 21:54 13.55524 -61.12286 7556 ft 249 kts 183°
2026-04-22 21:54 13.53767 -61.12340 7611 ft 249 kts 182°
2026-04-22 21:54 13.52058 -61.12373 7676 ft 249 kts 182°
2026-04-22 21:55 13.50321 -61.12392 7740 ft 250 kts 182°
2026-04-22 21:55 13.48583 -61.12406 7789 ft 250 kts 181°
2026-04-22 21:55 13.46841 -61.12419 7845 ft 250 kts 181°
2026-04-22 21:55 13.45096 -61.12429 7898 ft 251 kts 181°
2026-04-22 21:56 13.43357 -61.12442 7946 ft 250 kts 181°
2026-04-22 21:56 13.41608 -61.12452 8001 ft 251 kts 181°
2026-04-22 21:56 13.39866 -61.12461 8048 ft 251 kts 181°
2026-04-22 21:56 13.38115 -61.12468 8093 ft 251 kts 181°
2026-04-22 21:57 13.36368 -61.12476 8139 ft 251 kts 181°
2026-04-22 21:57 13.34617 -61.12484 8194 ft 251 kts 181°
2026-04-22 21:57 13.32879 -61.12527 8235 ft 248 kts 189°
2026-04-22 21:57 13.31252 -61.13098 8234 ft 249 kts 204°
2026-04-22 21:58 13.29658 -61.13818 8230 ft 251 kts 205°
2026-04-22 21:58 13.28062 -61.14569 8226 ft 253 kts 206°
2026-04-22 21:58 13.26467 -61.15335 8239 ft 254 kts 206°
2026-04-22 21:58 13.24867 -61.16112 8240 ft 255 kts 206°
2026-04-22 21:59 13.23277 -61.16884 8380 ft 249 kts 206°
2026-04-22 21:59 13.21731 -61.17632 8642 ft 242 kts 207°
2026-04-22 21:59 13.20228 -61.18356 8878 ft 236 kts 206°
2026-04-22 21:59 13.18775 -61.19054 9132 ft 232 kts 206°
2026-04-22 22:00 13.17300 -61.19757 9386 ft 229 kts 206°
2026-04-22 22:00 13.15879 -61.20430 9631 ft 226 kts 206°
2026-04-22 22:00 13.14459 -61.21102 9872 ft 223 kts 208°
2026-04-22 22:00 13.13087 -61.21835 10102 ft 222 kts 210°
2026-04-22 22:01 13.11737 -61.22596 10332 ft 220 kts 211°
2026-04-22 22:01 13.10399 -61.23362 10568 ft 220 kts 211°
2026-04-22 22:01 13.09063 -61.24121 10802 ft 220 kts 209°
2026-04-22 22:01 13.07683 -61.24783 11037 ft 218 kts 207°
2026-04-22 22:02 13.06329 -61.25471 11273 ft 218 kts 209°
2026-04-22 22:02 13.04968 -61.26155 11518 ft 217 kts 207°
2026-04-22 22:02 13.03611 -61.26824 11758 ft 216 kts 208°
2026-04-22 22:02 13.02267 -61.27515 11991 ft 216 kts 208°
2026-04-22 22:03 13.00913 -61.28192 12239 ft 216 kts 208°
2026-04-22 22:03 12.99560 -61.28870 12489 ft 216 kts 208°
2026-04-22 22:03 12.98211 -61.29549 12737 ft 216 kts 208°
2026-04-22 22:03 12.96865 -61.30225 12987 ft 215 kts 208°
2026-04-22 22:04 12.95523 -61.30897 13239 ft 214 kts 208°
2026-04-22 22:04 12.94188 -61.31569 13492 ft 213 kts 208°
2026-04-22 22:04 12.92859 -61.32232 13743 ft 212 kts 208°
2026-04-22 22:04 12.91536 -61.32898 13969 ft 213 kts 208°
2026-04-22 22:05 12.90221 -61.33556 14192 ft 213 kts 208°
2026-04-22 22:05 12.88894 -61.34225 14422 ft 213 kts 208°
2026-04-22 22:05 12.87565 -61.34889 14651 ft 212 kts 208°
2026-04-22 22:05 12.86237 -61.35553 14883 ft 212 kts 208°
2026-04-22 22:06 12.84915 -61.36217 15115 ft 211 kts 208°
2026-04-22 22:06 12.83596 -61.36877 15330 ft 210 kts 208°
2026-04-22 22:06 12.82286 -61.37535 15573 ft 209 kts 208°
2026-04-22 22:06 12.80979 -61.38187 15802 ft 209 kts 208°
2026-04-22 22:07 12.79645 -61.38860 15902 ft 217 kts 208°
2026-04-22 22:07 12.78267 -61.39550 15945 ft 225 kts 208°
2026-04-22 22:07 12.76837 -61.40264 15971 ft 232 kts 208°
2026-04-22 22:07 12.75368 -61.40998 15979 ft 238 kts 208°
2026-04-22 22:08 12.73862 -61.41756 15994 ft 243 kts 208°
2026-04-22 22:08 12.72327 -61.42519 15997 ft 247 kts 207°
2026-04-22 22:08 12.70794 -61.43289 15993 ft 250 kts 207°
2026-04-22 22:08 12.69220 -61.44075 15996 ft 252 kts 207°
2026-04-22 22:09 12.67634 -61.44870 15993 ft 254 kts 208°
2026-04-22 22:09 12.66042 -61.45666 15994 ft 255 kts 207°
2026-04-22 22:09 12.64443 -61.46466 15993 ft 256 kts 208°
2026-04-22 22:09 12.62836 -61.47271 15994 ft 257 kts 207°
2026-04-22 22:10 12.61226 -61.48075 15997 ft 258 kts 207°
2026-04-22 22:10 12.59616 -61.48882 15997 ft 258 kts 208°
2026-04-22 22:10 12.58002 -61.49687 15988 ft 258 kts 207°
2026-04-22 22:10 12.56389 -61.50495 15997 ft 258 kts 207°
2026-04-22 22:11 12.54770 -61.51304 15987 ft 258 kts 208°
2026-04-22 22:11 12.53172 -61.52100 15992 ft 258 kts 208°
2026-04-22 22:11 12.51558 -61.52911 15991 ft 259 kts 208°
2026-04-22 22:11 12.49938 -61.53719 15992 ft 259 kts 208°
2026-04-22 22:12 12.48317 -61.54530 15989 ft 259 kts 207°
2026-04-22 22:12 12.46698 -61.55338 15984 ft 259 kts 208°
2026-04-22 22:12 12.45076 -61.56146 15977 ft 259 kts 207°
2026-04-22 22:12 12.43454 -61.56956 15987 ft 259 kts 208°
2026-04-22 22:13 12.41833 -61.57763 15978 ft 259 kts 208°
2026-04-22 22:13 12.40213 -61.58576 15985 ft 259 kts 208°
2026-04-22 22:13 12.38595 -61.59386 15986 ft 259 kts 208°
2026-04-22 22:13 12.36972 -61.60194 15980 ft 259 kts 208°
2026-04-22 22:14 12.35369 -61.60993 15986 ft 259 kts 208°
2026-04-22 22:14 12.33750 -61.61801 15987 ft 259 kts 208°
2026-04-22 22:14 12.32130 -61.62612 15976 ft 259 kts 207°
2026-04-22 22:14 12.30508 -61.63422 15975 ft 259 kts 207°
2026-04-22 22:15 12.28887 -61.64230 15980 ft 259 kts 207°
2026-04-22 22:15 12.27267 -61.65036 15980 ft 259 kts 208°
2026-04-22 22:15 12.25648 -61.65842 15980 ft 259 kts 208°
2026-04-22 22:15 12.24028 -61.66654 15978 ft 259 kts 208°
2026-04-22 22:16 12.22406 -61.67465 15990 ft 259 kts 208°
2026-04-22 22:16 12.20779 -61.68274 15999 ft 259 kts 208°
2026-04-22 22:16 12.19158 -61.69080 16039 ft 258 kts 207°
2026-04-22 22:16 12.17567 -61.69871 16109 ft 256 kts 207°
2026-04-22 22:17 12.15970 -61.70668 16166 ft 255 kts 207°
2026-04-22 22:17 12.14376 -61.71464 16227 ft 254 kts 208°
2026-04-22 22:17 12.12789 -61.72256 16290 ft 254 kts 208°
2026-04-22 22:17 12.11183 -61.73056 16178 ft 260 kts 208°
2026-04-22 22:18 12.09539 -61.73876 16083 ft 264 kts 208°
2026-04-22 22:18 12.07885 -61.74700 16042 ft 265 kts 208°
2026-04-22 22:18 12.06230 -61.75524 16022 ft 265 kts 208°
2026-04-22 22:18 12.04577 -61.76346 16007 ft 264 kts 208°
2026-04-22 22:19 12.02931 -61.77164 16003 ft 263 kts 208°
2026-04-22 22:19 12.01288 -61.77977 16001 ft 262 kts 206°
2026-04-22 22:19 11.99520 -61.78349 16001 ft 262 kts 179°
2026-04-22 22:19 11.97714 -61.78058 15999 ft 263 kts 168°
2026-04-22 22:20 11.95957 -61.77567 15888 ft 268 kts 165°
2026-04-22 22:20 11.94151 -61.77020 15718 ft 273 kts 165°
2026-04-22 22:20 11.92305 -61.76483 15565 ft 277 kts 167°
2026-04-22 22:20 11.90429 -61.75988 15417 ft 280 kts 168°
2026-04-22 22:21 11.88526 -61.75512 15266 ft 283 kts 168°
2026-04-22 22:21 11.86608 -61.75018 15117 ft 284 kts 168°
2026-04-22 22:21 11.84685 -61.74519 14969 ft 286 kts 168°
2026-04-22 22:21 11.82752 -61.74024 14821 ft 287 kts 168°
2026-04-22 22:22 11.80815 -61.73523 14674 ft 287 kts 168°
2026-04-22 22:22 11.78875 -61.73025 14528 ft 288 kts 168°
2026-04-22 22:22 11.76932 -61.72523 14382 ft 288 kts 168°
2026-04-22 22:22 11.74990 -61.72021 14237 ft 288 kts 168°
2026-04-22 22:23 11.73007 -61.71513 13513 ft 295 kts 168°
2026-04-22 22:23 11.71092 -61.71030 12677 ft 274 kts 168°
2026-04-22 22:23 11.69288 -61.70576 11907 ft 260 kts 169°
2026-04-22 22:23 11.67543 -61.70133 11181 ft 264 kts 168°
2026-04-22 22:24 11.65708 -61.69665 10431 ft 279 kts 168°
2026-04-22 22:24 11.63820 -61.69185 9868 ft 283 kts 168°
2026-04-22 22:24 11.61955 -61.68702 9697 ft 270 kts 168°
2026-04-22 22:24 11.60166 -61.68235 9520 ft 261 kts 168°
2026-04-22 22:25 11.58451 -61.67790 9480 ft 249 kts 168°
2026-04-22 22:25 11.56797 -61.67366 9388 ft 242 kts 167°
2026-04-22 22:25 11.55174 -61.66949 9280 ft 238 kts 168°
2026-04-22 22:25 11.53547 -61.66519 8420 ft 251 kts 167°
2026-04-22 22:26 11.52343 -61.66181 7053 ft 159 kts 163°
2026-04-22 22:26 11.51319 -61.65822 6909 ft 156 kts 161°
2026-04-22 22:26 11.50262 -61.65551 6685 ft 157 kts 169°
2026-04-22 22:26 11.49081 -61.65307 6567 ft 189 kts 168°
2026-04-22 22:27 11.47716 -61.65016 6555 ft 211 kts 168°
2026-04-22 22:27 11.46231 -61.64684 6531 ft 225 kts 167°
2026-04-22 22:27 11.44662 -61.64307 6522 ft 236 kts 166°
2026-04-22 22:27 11.43054 -61.63896 6501 ft 242 kts 166°
2026-04-22 22:28 11.41397 -61.63466 6478 ft 248 kts 166°
2026-04-22 22:28 11.39712 -61.63035 6454 ft 250 kts 166°
2026-04-22 22:28 11.38012 -61.62603 6430 ft 252 kts 166°
2026-04-22 22:28 11.36305 -61.62214 6363 ft 251 kts 170°
2026-04-22 22:29 11.34577 -61.61971 6279 ft 252 kts 173°
2026-04-22 22:29 11.32824 -61.61784 6135 ft 254 kts 174°
2026-04-22 22:29 11.31064 -61.61601 6034 ft 254 kts 174°
2026-04-22 22:29 11.29327 -61.61392 5923 ft 254 kts 173°
2026-04-22 22:30 11.27574 -61.61163 5834 ft 254 kts 172°
2026-04-22 22:30 11.25825 -61.60934 5737 ft 253 kts 172°
2026-04-22 22:30 11.24073 -61.60705 5637 ft 253 kts 172°
2026-04-22 22:30 11.22324 -61.60479 5540 ft 253 kts 172°
2026-04-22 22:31 11.20576 -61.60247 5444 ft 253 kts 172°
2026-04-22 22:31 11.18828 -61.60020 5345 ft 253 kts 172°
2026-04-22 22:31 11.17081 -61.59792 5246 ft 253 kts 172°
2026-04-22 22:31 11.15353 -61.59567 5150 ft 253 kts 171°
2026-04-22 22:32 11.13593 -61.59334 5056 ft 252 kts 172°
2026-04-22 22:32 11.11852 -61.59110 4958 ft 252 kts 171°
2026-04-22 22:32 11.10113 -61.58877 4866 ft 252 kts 171°
2026-04-22 22:32 11.08371 -61.58653 4779 ft 252 kts 171°
2026-04-22 22:33 11.06629 -61.58421 4679 ft 252 kts 171°
2026-04-22 22:33 11.04890 -61.58196 4568 ft 252 kts 171°
2026-04-22 22:33 11.03165 -61.57960 4464 ft 255 kts 171°
2026-04-22 22:33 11.01402 -61.57712 4368 ft 257 kts 171°
2026-04-22 22:34 10.99626 -61.57471 4275 ft 258 kts 170°
2026-04-22 22:34 10.97842 -61.57234 4183 ft 259 kts 171°
2026-04-22 22:34 10.96054 -61.56995 4084 ft 259 kts 170°
2026-04-22 22:34 10.94262 -61.56770 3995 ft 259 kts 170°
2026-04-22 22:35 10.92473 -61.56544 3932 ft 258 kts 171°
2026-04-22 22:35 10.90697 -61.56317 3903 ft 256 kts 171°
2026-04-22 22:35 10.88931 -61.56095 3888 ft 254 kts 171°
2026-04-22 22:35 10.87182 -61.55868 3876 ft 253 kts 171°
2026-04-22 22:36 10.85440 -61.55642 3870 ft 251 kts 170°
2026-04-22 22:36 10.83707 -61.55411 3868 ft 250 kts 170°
2026-04-22 22:36 10.82003 -61.55191 3851 ft 250 kts 171°
2026-04-22 22:36 10.80282 -61.54964 3788 ft 251 kts 171°
2026-04-22 22:37 10.78547 -61.54738 3699 ft 248 kts 171°
2026-04-22 22:37 10.76855 -61.54523 3639 ft 244 kts 170°
2026-04-22 22:37 10.75166 -61.54311 3423 ft 243 kts 173°
2026-04-22 22:37 10.73501 -61.54534 3191 ft 241 kts 192°
2026-04-22 22:38 10.71865 -61.54960 2968 ft 243 kts 192°
2026-04-22 22:38 10.70224 -61.55390 2758 ft 244 kts 192°
2026-04-22 22:38 10.68555 -61.55383 2425 ft 243 kts 160°
2026-04-22 22:38 10.67230 -61.54401 2098 ft 235 kts 123°
2026-04-22 22:39 10.66789 -61.52973 1781 ft 196 kts 85°
2026-04-22 22:39 10.67187 -61.51769 1475 ft 169 kts 56°
2026-04-22 22:39 10.67617 -61.50777 1318 ft 153 kts 81°
2026-04-22 22:39 10.67355 -61.49702 1233 ft 167 kts 125°
2026-04-22 22:40 10.66362 -61.49042 1051 ft 172 kts 157°
2026-04-22 22:40 10.65270 -61.48637 938 ft 166 kts 159°
2026-04-22 22:40 10.64213 -61.48290 962 ft 148 kts 159°
2026-04-22 22:40 10.63249 -61.47997 935 ft 144 kts 161°
2026-04-22 22:41 10.62290 -61.47756 1004 ft 145 kts 162°
2026-04-22 22:41 10.61313 -61.47495 1100 ft 144 kts 159°
2026-04-22 22:41 10.60472 -61.46987 1160 ft 139 kts 129°
2026-04-22 22:41 10.59911 -61.46211 1182 ft 135 kts 119°
2026-04-22 22:42 10.59441 -61.45401 1188 ft 132 kts 116°
2026-04-22 22:42 10.59134 -61.44557 1221 ft 125 kts 92°
2026-04-22 22:42 10.59253 -61.43721 1234 ft 119 kts 72°
2026-04-22 22:42 10.59471 -61.42850 1016 ft 132 kts 73°
2026-04-22 22:43 10.59559 -61.41968 1094 ft 126 kts 89°
2026-04-22 22:43 10.59517 -61.41062 1039 ft 127 kts 90°
2026-04-22 22:43 10.59469 -61.40245 961 ft 110 kts 87°
2026-04-22 22:43 10.59469 -61.39454 883 ft 113 kts 86°
2026-04-22 22:44 10.59502 -61.38655 724 ft 118 kts 86°
2026-04-22 22:44 10.59522 -61.37874 565 ft 103 kts 90°
2026-04-22 22:44 10.59529 -61.37095 477 ft 115 kts 89°
2026-04-22 22:44 10.59529 -61.36285 332 ft 115 kts 88°
2026-04-22 22:45 10.59530 -61.35469 123 ft 113 kts 90°
2026-04-22 22:45 10.59536 -61.34718 48 ft 94 kts 88°
2026-04-22 22:45 10.59535 -61.34398 46 ft 26 kts 89°
2026-04-22 22:45 10.59536 -61.34232 47 ft 22 kts 90°
2026-04-22 22:46 10.59539 -61.34086 45 ft 19 kts 88°
2026-04-22 22:46 10.59538 -61.33957 45 ft 17 kts 90°
2026-04-22 22:46 10.59538 -61.33759 46 ft 32 kts 90°
2026-04-22 22:46 10.59546 -61.33607 45 ft 19 kts 73°
2026-04-22 22:47 10.59595 -61.33495 43 ft 16 kts 53°
2026-04-22 22:47 10.59667 -61.33450 44 ft 12 kts 359°
2026-04-22 22:47 10.59702 -61.33545 46 ft 20 kts 266°
2026-04-22 22:47 10.59707 -61.33681 46 ft 16 kts 271°
2026-04-22 22:48 10.59781 -61.33735 46 ft 13 kts 356°
2026-04-22 22:48 10.59868 -61.33736 46 ft 13 kts
2026-04-22 22:48 10.59954 -61.33735 46 ft 9 kts 359°
2026-04-22 22:48 10.59982 -61.33735 46 ft 0 kts 357°
2026-04-22 22:49 10.59984 -61.33736 46 ft 2 kts 357°
2026-04-22 22:49 10.60021 -61.33735 46 ft 8 kts
2026-04-22 22:49 10.60083 -61.33754 46 ft 12 kts 323°
2026-04-22 22:49 10.60132 -61.33816 46 ft 8 kts 348°
2026-04-22 22:50 10.60161 -61.33786 46 ft 12 kts 60°
2026-04-22 22:50 10.60153 -61.33756 46 ft 4 kts 125°
2026-04-22 22:50 10.60138 -61.33745 45 ft 1 kts 155°
2026-04-22 22:50 10.60130 -61.33741 46 ft 0 kts 156°
2026-04-22 22:51 10.60115 -61.33734 43 ft 7 kts 155°
2026-04-22 22:51 10.60089 -61.33722 46 ft 0 kts 155°
2026-04-22 22:53 10.60129 -61.33741 46 ft 0 kts 155°